Tracking 26308 objects as of 30-Nov-2022
HD Live streaming from Space Station
objects crossing your sky now

COSMOS 1408 DEB

Track COSMOS 1408 DEB now!
10-day predictions


NORAD ID: 50020
Int'l Code: 1982-092RG
Perigee: 459.6 km
Apogee: 472.0 km
Inclination: 82.6 °
Period: 93.8 minutes
Semi major axis: 6836 km
RCS: Unknown
Launch date: September 16, 1982
Source: Commonwealth of Independent States (former USSR) (CIS)
Launch site: PLESETSK MISSILE AND SPACE COMPLEX (PKMTR)

Note: This is SATELLITE DEBRIS
aabbcc
Your satellite tracking list
Your tracking list is empty




NASA's NSSDC Master Catalog

Two Line Element Set (TLE):
1 50020U 82092RG  22333.67632318  .00010436  00000-0  29862-3 0  9991
2 50020  82.6291 105.9706 0009076 176.2726 183.8587 15.35765535 55823
Source of the keplerian elements: AFSPC